Location: Ku?niki
(51.4449°N, 17.8974°E)
Time: 07:42:16
(UTC+00:00)

Cosmos 1464 Rocket - Pass Details

Date: 18 September 2020
Orbit: 953 x 1000 km, 82.9° (Epoch: 21 October)

Event Time Altitude Azimuth Distance (km) Brightness Sun altitude
Rises 17:58:29 0° 172° (S) 3,617 6.7 -10.6°
Reaches altitude 10° 18:01:00 10° 169° (SSE) 2,677 6.0 -10.9°
Maximum altitude 18:06:57 56° 93° (E) 1,129 4.0 -11.8°
Drops below altitude 10° 18:12:59 10° 17° (NNE) 2,712 6.4 -12.7°
Sets 18:15:32 0° 13° (NNE) 3,669 7.1 -13.1°
